#timestamp,LO_Frequency,Hit 
1503511215.2,286046997.0,P
1503511235.0,286046997.6,N
1503511235.9,286046997.6,N
1503511255.8,286046995.0,N
1503511275.6,286046995.5,N
1503511295.4,286046997.7,N
1503511315.3,286046999.4,N
1503511335.1,286047001.0,N
1503511355.8,286046997.0,N
1503511375.7,286046997.7,N
1503511395.5,286046996.7,N
1503511415.3,286046996.8,N
1503511435.2,286046997.9,N
1503511455.9,286046993.3,N
1503511475.7,286046997.4,N
1503511495.6,286046997.2,N
1503511515.4,286046999.2,N
1503511535.2,286047001.2,N
1503511555.0,286047001.5,N
1503511556.0,286047001.5,N
1503511575.8,286047000.5,N
1503511595.6,286047000.3,N
1503511615.4,286047000.2,N
1503511635.3,286047002.6,N
1503511655.1,286047000.3,N
1503511675.8,286046999.2,N
1503511695.7,286046995.4,N
1503511715.5,286046994.2,N
1503511735.3,286046995.8,N
1503511755.2,286046996.4,N
1503511775.9,286046993.4,N
1503511795.7,286046996.4,N
1503511815.6,286046996.1,N
1503511835.4,286046992.1,P
1503511855.2,286046992.8,N
1503511875.1,286046992.7,N
1503511876.0,286046992.7,P
1503511895.8,286046996.7,P
1503511915.6,286046997.9,N
1503511935.5,286046991.0,P
1503511955.3,286046996.4,N
1503511975.1,286046996.1,N
1503511995.9,286046995.2,N
1503512015.7,286046998.0,N
1503512035.5,286046997.6,N
1503512055.4,286046998.4,N
1503512075.2,286047000.1,N
1503512095.0,286047002.6,N
1503512095.9,286047002.6,N
1503512115.8,286046999.7,N
1503512135.6,286047003.8,N
1503512155.4,286047002.8,N
1503512175.3,286047000.4,N
1503512195.1,286046997.1,N
1503512196.0,286046997.1,N
1503512215.8,286046996.7,N
1503512235.7,286046998.9,N
1503512255.5,286046996.5,N
1503512275.3,286046997.2,N
1503512295.1,286046993.6,N
1503512315.9,286046994.4,N
1503512335.7,286046991.8,N
1503512355.5,286046996.2,N
1503512375.4,286046997.6,N
1503512395.2,286046995.0,N
1503512415.0,286046998.2,N
1503512415.9,286046998.2,N
1503512435.8,286046998.6,N
1503512455.6,286046998.9,N
1503512475.4,286047004.0,N
1503512495.3,286047005.5,N
1503512515.1,286047003.3,N
1503512516.0,286047003.3,N
1503512535.8,286047003.6,N
1503512555.7,286047003.9,N
1503512575.5,286047003.4,N
1503512595.3,286047005.4,N
1503512615.2,286047007.5,N
1503512635.9,286047005.9,N
1503512655.7,286047004.8,N
1503512675.6,286047008.4,N
1503512695.4,286047008.2,N
1503512715.2,286047006.3,N
1503512735.0,286047006.8,N
1503512736.0,286047006.8,N
1503512755.8,286047007.4,N
1503512775.6,286047005.7,N
1503512795.4,286047005.2,N
1503512815.3,286047005.0,N
1503512835.1,286047008.2,N
1503512855.8,286047009.7,N
1503512875.7,286047013.4,P
1503512895.5,286047010.8,N
1503512915.3,286047010.1,N
1503512935.2,286047007.7,N
1503512955.9,286047008.2,N
1503512975.7,286047006.1,N
1503512995.6,286047008.8,N
1503513015.4,286047006.3,N
1503513035.2,286047006.1,N
1503513055.1,286047010.0,P
1503513056.0,286047010.0,P
1503513075.8,286047001.5,N
1503513095.6,286046998.6,N
1503513115.5,286046994.9,N
1503513135.3,286046994.9,N
1503513155.1,286046995.0,N
1503513175.9,286046996.8,N
1503513195.7,286046994.9,N
1503513215.5,286046996.9,N
1503513235.4,286046999.0,N
1503513255.2,286046998.4,N
1503513275.0,286047002.6,N
1503513275.9,286047002.6,N
1503513295.8,286047004.0,N
1503513315.6,286047003.1,N
1503513335.4,286047001.5,N
1503513355.2,286046998.5,N
1503513375.1,286046997.6,N
1503513376.0,286046997.6,N
1503513395.8,286046997.3,N
1503513415.6,286046999.0,N
1503513435.5,286046998.8,N
1503513455.3,286047001.2,N
1503513475.1,286046999.9,N
1503513495.9,286046998.1,N
1503513515.7,286047000.5,N
1503513535.5,286047000.0,N
1503513555.4,286047001.6,N
1503513575.2,286047000.2,N
1503513595.0,286046998.6,N
1503513595.9,286046998.6,N
1503513615.7,286047001.4,N
1503513635.6,286047007.4,N
1503513655.4,286047004.7,N
1503513675.2,286047007.9,N
1503513695.1,286047010.8,P
1503513696.0,286047010.8,N
1503513715.8,286047008.5,N
1503513735.7,286047005.7,N
1503513755.5,286047004.0,N
1503513775.3,286047002.1,N
1503513795.1,286046998.6,N
1503513815.9,286046997.2,N
1503513835.7,286046993.7,N
1503513855.5,286046995.1,N
1503513875.4,286046997.5,N
1503513895.2,286046998.0,N
1503513915.0,286046997.1,N
1503513915.9,286046997.1,N
1503513935.8,286046995.7,N
1503513955.6,286046994.2,N
1503513975.4,286046994.4,N
1503513995.3,286046992.6,N
1503514015.1,286046991.9,N
1503514035.8,286046994.1,N
1503514055.7,286046992.4,N
1503514075.5,286046988.7,N
1503514095.3,286046987.4,N
1503514115.2,286046989.9,N
1503514135.9,286046989.7,N
1503514155.7,286046989.4,N
1503514175.5,286046991.4,N
1503514195.4,286046992.3,N
1503514215.2,286046992.2,N
1503514235.0,286046990.4,N
1503514235.9,286046990.4,N
1503514255.8,286046987.8,N
1503514275.6,286046987.0,N
1503514295.4,286046990.2,N
1503514315.3,286046992.6,N
1503514335.1,286046991.9,N
1503514355.8,286046994.7,N
1503514375.7,286046992.7,N
1503514395.5,286046989.8,P
1503514415.3,286046996.6,N
1503514435.2,286046994.9,N
1503514455.9,286046995.1,N
1503514475.7,286046998.3,N
1503514495.6,286047001.8,N
1503514515.4,286047004.2,N
1503514535.2,286047003.9,N
1503514555.1,286047006.6,N
1503514556.0,286047006.6,N
1503514575.8,286047006.7,N
1503514595.6,286047008.7,N
1503514615.4,286047009.9,N
1503514635.3,286047010.1,N
1503514655.1,286047012.0,N
1503514675.8,286047011.7,N
1503514695.7,286047011.2,N
1503514715.5,286047009.3,N
1503514735.3,286047012.1,N
1503514755.2,286047011.0,N
1503514775.9,286047009.7,N
1503514795.7,286047010.2,N
